Previsão horária em Cayenne

Hoje, 3 Agosto, Terça-feira

Tempo Temperatura Precipitação Vento Pressão Humidade
00:00 +25°C° 0.2 mm 2 m/s 761 mmHg 92%
01:00 +25°C° 0.1 mm 2 m/s 760 mmHg 93%
02:00 +25°C° 0.1 mm 2 m/s 760 mmHg 93%
03:00 +25°C° 0 mm 2 m/s 760 mmHg 94%
04:00 +24°C° 0.5 mm 2 m/s 760 mmHg 95%
05:00 +24°C° 0.5 mm 2 m/s 760 mmHg 95%
06:00 +24°C° 0.5 mm 2 m/s 760 mmHg 96%
07:00 +25°C° 0.6 mm 2 m/s 760 mmHg 93%
08:00 +26°C° 0.6 mm 1 m/s 760 mmHg 91%
09:00 +27°C° 0.6 mm 1 m/s 761 mmHg 88%
10:00 +29°C° 0 mm 1 m/s 760 mmHg 76%
11:00 +31°C° 0 mm 1 m/s 760 mmHg 63%
12:00 +33°C° 0 mm 1 m/s 760 mmHg 51%
13:00 +34°C° 0 mm 2 m/s 759 mmHg 51%
14:00 +34°C° 0 mm 2 m/s 759 mmHg 52%
15:00 +34°C° 0 mm 2 m/s 758 mmHg 53%
16:00 +31°C° 0 mm 2 m/s 758 mmHg 60%
17:00 +30°C° 0 mm 3 m/s 758 mmHg 67%
18:00 +29°C° 0 mm 3 m/s 758 mmHg 73%
19:00 +28°C° 0 mm 2 m/s 759 mmHg 77%
20:00 +27°C° 0 mm 2 m/s 759 mmHg 80%
21:00 +26°C° 0 mm 2 m/s 760 mmHg 84%
22:00 +25°C° 0.2 mm 2 m/s 760 mmHg 86%
23:00 +25°C° 0.2 mm 1 m/s 760 mmHg 87%

Amanhã, 4 Agosto, Quarta-feira

Tempo Temperatura Precipitação Vento Pressão Humidade
00:00 +25°C° 0.2 mm 1 m/s 760 mmHg 89%
01:00 +24°C° 0.3 mm 1 m/s 760 mmHg 91%
02:00 +24°C° 0.3 mm 1 m/s 759 mmHg 92%
03:00 +24°C° 0.3 mm 1 m/s 759 mmHg 94%
04:00 +24°C° 0.2 mm 1 m/s 759 mmHg 94%
05:00 +24°C° 0.2 mm 1 m/s 759 mmHg 95%
06:00 +24°C° 0.2 mm 1 m/s 760 mmHg 96%
07:00 +25°C° 0.1 mm 1 m/s 760 mmHg 92%
08:00 +27°C° 0.1 mm 1 m/s 760 mmHg 88%
09:00 +28°C° 0.1 mm 1 m/s 761 mmHg 85%
10:00 +29°C° 0.4 mm 1 m/s 761 mmHg 78%
11:00 +31°C° 0.4 mm 1 m/s 760 mmHg 71%
12:00 +30°C° 0.4 mm 0 m/s 760 mmHg 64%
13:00 +32°C° 0.4 mm 1 m/s 760 mmHg 65%
14:00 +32°C° 0.4 mm 1 m/s 759 mmHg 67%
15:00 +31°C° 0.4 mm 1 m/s 759 mmHg 68%
16:00 +30°C° 0.3 mm 1 m/s 759 mmHg 75%
17:00 +29°C° 0.3 mm 1 m/s 759 mmHg 82%
18:00 +28°C° 0.3 mm 1 m/s 759 mmHg 89%
19:00 +27°C° 0.1 mm 2 m/s 759 mmHg 91%
20:00 +26°C° 0.1 mm 2 m/s 760 mmHg 93%
21:00 +25°C° 0.1 mm 2 m/s 760 mmHg 95%
22:00 +25°C° 0 mm 2 m/s 760 mmHg 95%
23:00 +25°C° 0 mm 2 m/s 760 mmHg 95%

Depois de amanhã, 5 Agosto, Quinta-feira

Tempo Temperatura Precipitação Vento Pressão Humidade
00:00 +25°C° 0 mm 2 m/s 761 mmHg 95%
01:00 +25°C° 0.2 mm 2 m/s 760 mmHg 96%
02:00 +24°C° 0.2 mm 2 m/s 760 mmHg 96%
03:00 +24°C° 0.2 mm 2 m/s 759 mmHg 97%
04:00 +24°C° 0.2 mm 2 m/s 760 mmHg 97%
05:00 +24°C° 0.2 mm 2 m/s 760 mmHg 98%
06:00 +24°C° 0.2 mm 2 m/s 760 mmHg 98%
07:00 +25°C° 0.3 mm 2 m/s 761 mmHg 95%
08:00 +26°C° 0.3 mm 2 m/s 761 mmHg 92%
09:00 +27°C° 0.3 mm 2 m/s 762 mmHg 89%
10:00 +29°C° 0.6 mm 1 m/s 761 mmHg 84%
11:00 +30°C° 0.6 mm 1 m/s 761 mmHg 79%
12:00 +31°C° 0.6 mm 1 m/s 761 mmHg 73%
13:00 +30°C° 0.8 mm 1 m/s 760 mmHg 77%
14:00 +30°C° 0.8 mm 1 m/s 760 mmHg 81%
15:00 +30°C° 0.8 mm 2 m/s 759 mmHg 84%
16:00 +29°C° 1.1 mm 2 m/s 759 mmHg 88%
17:00 +28°C° 1.1 mm 2 m/s 759 mmHg 91%
18:00 +27°C° 1.1 mm 2 m/s 759 mmHg 94%
19:00 +26°C° 0.2 mm 2 m/s 760 mmHg 95%
20:00 +26°C° 0.2 mm 2 m/s 760 mmHg 95%
21:00 +25°C° 0.2 mm 2 m/s 760 mmHg 96%
22:00 +25°C° 0.1 mm 2 m/s 760 mmHg 96%
23:00 +25°C° 0.1 mm 2 m/s 761 mmHg 96%

6 Agosto, Sexta-feira

Tempo Temperatura Precipitação Vento Pressão Humidade
00:00 +25°C° 0.1 mm 2 m/s 761 mmHg 96%
01:00 +25°C° 0 mm 2 m/s 760 mmHg 97%
02:00 +25°C° 0 mm 1 m/s 760 mmHg 97%
03:00 +25°C° 0 mm 1 m/s 759 mmHg 97%
04:00 +25°C° 0.1 mm 1 m/s 759 mmHg 97%
05:00 +24°C° 0.1 mm 1 m/s 760 mmHg 97%
06:00 +24°C° 0.1 mm 1 m/s 760 mmHg 97%
07:00 +26°C° 0.7 mm 1 m/s 760 mmHg 93%
08:00 +27°C° 0.7 mm 1 m/s 761 mmHg 90%
09:00 +28°C° 0.7 mm 1 m/s 761 mmHg 86%
10:00 +29°C° 0.3 mm 2 m/s 761 mmHg 80%
11:00 +30°C° 0.3 mm 2 m/s 761 mmHg 74%
12:00 +31°C° 0.3 mm 2 m/s 761 mmHg 68%
13:00 +31°C° 0.4 mm 2 m/s 760 mmHg 70%
14:00 +31°C° 0.4 mm 2 m/s 759 mmHg 72%
15:00 +31°C° 0.4 mm 2 m/s 759 mmHg 74%
16:00 +30°C° 0.5 mm 2 m/s 759 mmHg 80%
17:00 +29°C° 0.5 mm 1 m/s 759 mmHg 86%
18:00 +28°C° 0.5 mm 1 m/s 759 mmHg 92%
19:00 +27°C° 0.2 mm 1 m/s 759 mmHg 93%
20:00 +26°C° 0.2 mm 2 m/s 759 mmHg 94%
21:00 +25°C° 0.2 mm 2 m/s 760 mmHg 95%
22:00 +25°C° 0.6 mm 2 m/s 760 mmHg 95%
23:00 +25°C° 0.6 mm 2 m/s 760 mmHg 96%

7 Agosto, Sábado

Tempo Temperatura Precipitação Vento Pressão Humidade
00:00 +25°C° 0.6 mm 2 m/s 760 mmHg 96%
01:00 +24°C° 0.6 mm 2 m/s 760 mmHg 96%
02:00 +24°C° 0.6 mm 2 m/s 759 mmHg 97%
03:00 +24°C° 0.6 mm 3 m/s 759 mmHg 97%
04:00 +24°C° 0.7 mm 3 m/s 759 mmHg 97%
05:00 +24°C° 0.7 mm 3 m/s 759 mmHg 97%
06:00 +24°C° 0.7 mm 3 m/s 759 mmHg 97%
07:00 +25°C° 0.7 mm 3 m/s 760 mmHg 94%
08:00 +26°C° 0.7 mm 3 m/s 760 mmHg 90%
09:00 +28°C° 0.7 mm 3 m/s 760 mmHg 86%
10:00 +30°C° 0.3 mm 3 m/s 760 mmHg 75%
11:00 +33°C° 0.3 mm 3 m/s 760 mmHg 64%
12:00 +35°C° 0.3 mm 3 m/s 760 mmHg 53%
13:00 +34°C° 0.1 mm 3 m/s 759 mmHg 56%
14:00 +34°C° 0.1 mm 3 m/s 758 mmHg 59%
15:00 +33°C° 0.1 mm 4 m/s 758 mmHg 62%
16:00 +32°C° 0.5 mm 4 m/s 758 mmHg 72%
17:00 +29°C° 0.5 mm 4 m/s 758 mmHg 81%
18:00 +27°C° 0.5 mm 4 m/s 758 mmHg 91%
19:00 +27°C° 0.3 mm 4 m/s 758 mmHg 91%
20:00 +27°C° 0.3 mm 4 m/s 759 mmHg 92%
21:00 +26°C° 0.3 mm 4 m/s 759 mmHg 93%
22:00 +26°C° 0.3 mm 3 m/s 759 mmHg 94%
23:00 +26°C° 0.3 mm 3 m/s 759 mmHg 94%

8 Agosto, Domingo

Tempo Temperatura Precipitação Vento Pressão Humidade
00:00 +25°C° 0.3 mm 3 m/s 760 mmHg 95%
01:00 +25°C° 0.4 mm 3 m/s 759 mmHg 95%
02:00 +25°C° 0.4 mm 4 m/s 759 mmHg 96%
03:00 +25°C° 0.4 mm 4 m/s 758 mmHg 97%
04:00 +25°C° 0.7 mm 4 m/s 759 mmHg 97%
05:00 +23°C° 0.7 mm 4 m/s 759 mmHg 97%
06:00 +23°C° 0.7 mm 4 m/s 759 mmHg 97%
07:00 +26°C° 0.2 mm 4 m/s 759 mmHg 94%
08:00 +27°C° 0.2 mm 4 m/s 759 mmHg 91%
09:00 +28°C° 0.2 mm 4 m/s 760 mmHg 87%
10:00 +30°C° 0 mm 4 m/s 760 mmHg 77%
11:00 +33°C° 0 mm 4 m/s 760 mmHg 67%
12:00 +34°C° 0 mm 4 m/s 759 mmHg 56%
13:00 +34°C° 0 mm 4 m/s 759 mmHg 58%
14:00 +34°C° 0 mm 5 m/s 758 mmHg 59%
15:00 +34°C° 0 mm 5 m/s 757 mmHg 60%
16:00 +33°C° 0.1 mm 5 m/s 757 mmHg 67%
17:00 +32°C° 0.1 mm 5 m/s 757 mmHg 73%
18:00 +29°C° 0.1 mm 5 m/s 757 mmHg 79%
19:00 +29°C° 0.7 mm 5 m/s 758 mmHg 82%
20:00 +28°C° 0.7 mm 5 m/s 758 mmHg 85%
21:00 +27°C° 0.7 mm 5 m/s 759 mmHg 88%
22:00 +27°C° 0.1 mm 5 m/s 759 mmHg 88%
23:00 +27°C° 0.1 mm 4 m/s 759 mmHg 89%
Mostrar mais

Necessitamos do seu Consentimento

A Meteoprog e os seus Fornecedores de Serviços podem armazenar e aceder a dados pessoais como cookies, identificadores do dispositivo ou outras tecnologias semelhantes existentes no seu dispositivo e processar estes dados para personalizar conteúdos e anúncios, assim como funcionalidades nas redes sociais e análise de tráfego.

  • Armazenar e/ou aceder a informações no seu dispositivo

    Os cookies, identificadores do dispositivo ou outras informações podem ser armazenados ou acedidos no seu dispositivo, para os fins acima indicados.

  • Anúncios e conteúdos personalizados, medição de anúncios e conteúdos, dados sobre o público-alvo e desenvolvimento de produtos

    Os anúncios e os conteúdos podem ser personalizados com base num perfil. Podem ser adicionados dados adicionais para uma maior personalização dos anúncios e dos conteúdos. A eficácia dos anúncios e dos conteúdos pode ser medida. Podem ser obtidas informações sobre o público que visualizou os anúncios e os conteúdos. Estes dados podem ser usados para desenvolver ou melhorar sistemas, softwares ou a experiência do utilizador.

Ao clicar em "Eu concordo”, permitirá o uso de cookies, identificadores do dispositivo e web beacons mencionados ou outras tecnologias semelhantes. As configurações do navegador do seu dispositivo podem ser alteradas.

Para certos fins, podem ser invocados interesses legítimos ao invés de consentimento. Pode ler mais informação sobre este assunto na nossa Política de Privacidade e Cookies.